Regional Weather Roundup
Issued by NWS Wakefield, VA

Home | Current Version | Previous Version | Text Only | Print | Product List | Glossary Off
Versions: 1 2 3 4 5 6 7 8 9 10 11 12 13 14 15 16 17 18 19 20 21 22 23 24 25 26 27

000
ASUS41 KAKQ 310115
RWRAKQ

REGIONAL WEATHER ROUNDUP
NATIONAL WEATHER SERVICE WAKEFIELD VA
900 PM EDT TUE AUG 30 2016

Note: "fair" indicates few or no clouds below 12,000 feet with no
significant weather and/or obstructions to visibility. * = Denotes
station may not report precipitation (e.g., rain,snow,etc.),
thunder or fog.

VAZ042-051-052>054-056-310200-
NORTHERN VIRGINIA

CITY           SKY/WX    TMP DP  RH WIND       PRES   REMARKS
WASH NATIONAL  PTCLDY    82  62  50 SE5       30.04R
DULLES         PTCLDY    79  65  62 E5        30.04R
FORT BELVOIR   CLEAR     74  65  75 CALM      30.04R
QUANTICO       NOT AVBL
FREDERICKSBRG* CLEAR     76  70  81 CALM      30.02R
STAFFORD*      CLEAR     71  68  92 CALM      30.07R
WARRENTON      CLEAR     72  64  77 CALM      30.04R
CULPEPER*      CLEAR     75  72  91 CALM      30.04S
MANASSAS*      NOT AVBL
LEESBURG*      CLEAR     77  70  78 NW5       30.05S
WINCHESTER     CLEAR     73  63  68 CALM      30.05S
FRONT ROYAL*   FAIR      72  68  88 CALM      30.05R
LURAY*         FAIR      73  72  94 CALM      30.06R
$$

VAZ048-049-060>072-079>083-310200-
CENTRAL AND SOUTH CENTRAL VIRGINIA

CITY           SKY/WX    TMP DP  RH WIND       PRES   REMARKS
RICHMOND       PTCLDY    79  69  71 E6        30.03R
CHESTERFIELD*  FAIR      81  61  50 E3        30.05R
PETERSBURG*    CLEAR     76  69  80 E3        30.03R
HANOVER        CLEAR     76  70  82 SE3       30.05R
TAPPAHANNOCK*  CLEAR     76  71  83 CALM      30.04R
QUINTON*       FAIR      77  71  79 E7        30.02S
CHARLOTTSVILLE PTCLDY    82  68  62 E3        30.04R
GORDONSVILLE*  FAIR      73  72  94 CALM      30.04R
ORANGE*        NOT AVBL
LOUISA*        CLEAR     73  72  94 CALM      30.03R
BUMPASS*       FAIR      73  71  94 CALM      30.04R
FARMVILLE*     CLEAR     79  68  68 N3        30.02R
CREWE*         FAIR      76  70  83 CALM      30.03R
FORT PICKETT*  FAIR      80  68  67 SE5       30.03R
CHASE CITY*    MOCLDY    79  68  69 CALM      30.03R
CLARKSVILLE*   FAIR      81  70  69 E3        30.02R
SOUTH HILL*    CLEAR     79  69  72 CALM      30.09R
LAWRENCEVILLE* FAIR      81  67  63 CALM      30.03R
EMPORIA*       CLEAR     79  64  61 NE3       30.04R
$$

VAZ088>098-310200-
SOUTHEAST VIRGINIA

CITY           SKY/WX    TMP DP  RH WIND       PRES   REMARKS
NORFOLK        CLEAR     78  74  87 VRB5      30.04R
VIRGINIA BEACH PTCLDY    78  73  84 E6        30.02S
NORFOLK NAVAL  PTCLDY    78  74  87 E7        30.05R
WEST POINT*    CLEAR     76  70  83 CALM      30.05R
SALUDA*        FAIR      76  72  87 CALM      30.03R
NEWPORT NEWS   CLEAR     77  72  84 SE5       30.04R
LANGLEY AFB    CLEAR     79  74  84 SE6       30.03R
FORT EUSTIS    CLEAR     80  72  75 SE5       30.01R
WILLIAMSBURG*  CLEAR     79  72  78 CALM      30.04R
HR EXEC AP*    FAIR      72  64  78 CALM      30.06R
FRANKLIN*      CLEAR     76  67  74 CALM      30.04R
US460-WAKEFLD  CLEAR     75  68  78 CALM      30.03R
$$

VAZ020-022-025-037-045-310200-
WEST CENTRAL AND SOUTHWEST VIRGINIA

CITY           SKY/WX    TMP DP  RH WIND       PRES   REMARKS
STAUNTON*      RAIN      73  70  89 W6        30.11R
WAYNESBORO*    CLOUDY    77  68  73 S10       30.08R
HOT SPRINGS VA CLOUDY    71  62  75 W7        30.21R
LYNCHBURG      CLEAR     74  68  81 CALM      30.06R
DANVILLE       CLOUDY    78  72  81 CALM      30.03R
SOUTH BOSTON*  FAIR      75  74  95 CALM      30.02R
MARTINSVILLE   CLEAR     73  70  93 CALM      30.08R
ROANOKE        PTCLDY    81  69  67 CALM      30.08R
BLACKSBURG     MOCLDY    73  70  91 CALM      30.15S
DUBLIN*        CLEAR     72  69  90 CALM      30.14R
MARION*        PTCLDY    74  67  79 CALM      30.17R
HILLSVILLE*    PTCLDY    73  69  88 SE3       30.15R
RICHLANDS*     FAIR      73  69  88 CALM      30.16R
WISE*          CLEAR     72  68  88 N5        30.16S
ABINGDON*      CLOUDY    76  67  71 CALM      30.11R
$$

MDZ021>025-VAZ099-100-310200-
SOUTHERN MARYLAND AND THE DELMARVA PENINSULA

CITY           SKY/WX    TMP DP  RH WIND       PRES   REMARKS
PATUXENT RIVER CLEAR     75  65  70 NE5       30.03R
BAY BRIDGE APT CLEAR     77  66  69 MISG      30.04R
LEONARDTOWN    CLEAR     72  64  78 CALM      30.05S
DOVER          CLEAR     76  72  89 SE3       30.03R
GEORGETOWN     CLEAR     75  72  90 CALM      30.05R
EASTON         CLEAR     77  68  73 CALM      30.08R
CAMBRIDGE      CLEAR     72  66  83 CALM      30.04R
SALISBURY      CLEAR     74  71  91 CALM      30.04R
OCEAN CITY     CLEAR     77  72  84 SE3       30.05R
WALLOPS ISLAND CLEAR     78  74  87 E6        30.05R
ACCOMACK*      CLEAR     75  71  86 SE3       30.04R
$$

NCZ012>017-030>032-310200-
NORTH CENTRAL AND EASTERN NORTH CAROLINA

CITY           SKY/WX    TMP DP  RH WIND       PRES   REMARKS
ROANOKE RAPIDS FAIR      77  70  78 E5        30.02R
RALEIGH        PTCLDY    79  69  71 E3        30.02R
ELIZABETH CITY CLEAR     79  75  87 NE9       30.02S
AHOSKIE*       CLEAR     78  71  77 E6        30.02R
EDENTON*       CLEAR     80  79  97 E6        30.02R
CURRITUCK*       N/A     80  76  88 E5        30.03S
KILL DEVIL HLS CLEAR     79  79  99 NE6       30.00R
MANTEO         PTCLDY    79  77  95 NE12      30.01S
CAPE HATTERAS  PTCLDY    80  76  87 NE7       29.97S
TARBORO*       FAIR      74  73  94 CALM      30.02R
GOLDSBORO      PTCLDY    82  78  90 E3        29.99R
WASHINGTON     CLEAR     77  74  88 NE3       30.01R
GREENVILLE     CLEAR     81  73  78 E3        30.03R
NEW BERN       CLEAR     80  73  79 NE7       30.01R
WILMINGTON     PTCLDY    76  75  97 CALM      30.00R
$$

VAZ048-310200-
ELSEWHERE

CITY           SKY/WX    TMP DP  RH WIND       PRES   REMARKS
HARRISBURG PA  MOCLDY    79  66  64 S3        30.03R
BALTIMORE      PTCLDY    73  64  73 CALM      30.04R
ANNAPOLIS      CLEAR     80  71  74 CALM      30.04R
ANDREWS AFB    CLEAR     74  65  72 CALM      30.04R
PHILADELPHIA   PTCLDY    79  70  74 S7        30.04R
HENDERSON NC   CLEAR     75  68  77 CALM      30.03R
GREENSBORO     PTCLDY    83  66  56 CALM      30.04R
ROCKY MOUNT    CLEAR     81  70  69 CALM      30.01R
$$

VAZ100-310200-
MARINE

STATION/POSITION TIME  TEMP    WIND        PRES    WAVE   SWELL
                       AIR SEA DIR/SP/G            HT/PER HT/PER
                 (UTC) (F)     (DEG/KT/KT) (MB)    (FT/S) (FT/S)
BRANDYWINE LGT   0000   75                   N/A
CAPE MAY NJ      0000   76 79              1016.9R
LEWES DE         0000   78 78              1017.0S
OCEAN-CITY-INLET 0000   79 78              1017.5R
WACHAPREAGUE VA  0000   79 84              1016.9F
THOMAS POINT MD  0100   82 83   90/  5/  6 1018.4R
GOOSES REEF MD   0000   85 83   70/  6/  8 1017.2S   1
COVE POINT MD    0000   83                 1017.2F
SOLOMONS ISLAND  0000   82 84                N/A
BISHOPS HEAD MD  0000   83 86              1016.9F
PINEY POINT MD   0000           90/  3/  4   N/A
POTOMAC MD       0000   83 85   20/  6/  6 1015.5F   0
CAMBRIDGE MD     0000   82 83              1015.9S
LEWISETTA VA     0000   83 85              1016.2F
RAPPAHANNOCK LGT 0000                      1017.3R
STINGRAY PT      0000   83 84   10/  6/  8 1017.0F   0
YORK RVR RNG VA  0000   81                 1016.2R
YORKTOWN VA      0000   81 84              1016.2S
JAMESTOWN VA     0000   83 86  100/  6/  8   N/A     0
DOMINION TERM VA 0000   81                 1016.6R
KIPTOPEKE VA     0000      82                N/A
CAPE HENRY VA    0000   79                   N/A
WILLOUBY STN VA  0000   79                   N/A
CAPE HENRY BUOY  0012      80                N/A     4/12   2/12
1ST LANDING BUOY 0000   79 80  110/ 12/ 14 1016.2S   2/ 4
CAPE CHARLES BUO 0026      80                N/A     3/13   2/13
OFFSHORE WE BUOY 0021      81                N/A     4/11   3/11
64NM E OF VA BCH 0050   80 80  100/ 12/ 16 1016.3R   5/11   3/11
DUCK PIER NC     0000   80 80              1015.6S
44056 DUCK FRF   0011      80                N/A     4/12   2/12
OREGON INLET NC  0000   80 81              1015.5F
HATTERAS NC      0000   81 84              1014.5R
DIAMOND SHLS NC  0050   82 84   70/ 14/ 19 1014.2R   5/11   5/11
CAPE LOOKOUT NC  0100   81      10/ 11/ 16 1014.5F
$$




USA.gov is the U.S. government's official web portal to all federal, state and local government web resources and services.